Location: Escondido Hill
(38.9119°N, 104.7815°W)
Time: 23:24:49
(UTC-06:00)

Tiangong 2 - Visible Passes

Search period start: 15 October 2018 00:00
Search period end: 25 October 2018 00:00
Orbit: 383 x 393 km, 42.8° (Epoch: 15 October)

Date Brightness Start Highest point End Pass type
(mag) Time Alt. Az. Time Alt. Az. Time Alt. Az.
15 Oct 2.0 05:22:40 45° NNE 05:22:40 45° NNE 05:25:28 10° E visible
16 Oct 1.0 05:59:33 30° WNW 06:00:57 82° SSW 06:04:08 10° ESE visible
17 Oct 3.3 05:04:11 26° E 05:04:11 26° E 05:05:47 10° E visible
17 Oct 2.4 06:36:33 10° W 06:39:16 26° SSW 06:42:00 10° SSE visible
18 Oct 1.6 05:41:12 45° SSW 05:41:12 45° SSW 05:44:07 10° SE visible
19 Oct 3.2 06:18:19 13° SW 06:19:13 14° SW 06:20:58 10° S visible
20 Oct 3.8 05:23:11 13° SSE 05:23:11 13° SSE 05:23:42 10° SSE visible
